Location: Milton Keynes
(52.0316°N, 0.7531°W)
Time: 21:04:40
(UTC+00:00)

GENESIS II - Pass Details

Date: 02 February 2019
Orbit: 487 x 544 km, 64.5° (Epoch: 22 February)

Event Time Altitude Azimuth Distance (km) Brightness Sun altitude
Exits shadow 04:09:05 13° 111° (ESE) 1,550 7.1 -32.7°
Drops below altitude 10° 04:11:00 10° 83° (E) 1,771 7.7 -32.4°
Sets 04:14:08 0° 56° (ENE) 2,681 8.8 -31.9°
